Time,TemperatureF,DewpointF,PressureIn,WindDirection,WindDirectionDegrees,WindSpeedMPH,WindSpeedGustMPH,Humidity,HourlyPrecipIn,Conditions,Clouds,dailyrainin,SoftwareType,DateUTC
2013-11-08 00:01:00,31.0,24.0,29.99,NW,315,3.0,6.0,74,0.00,,,0.00,Rainwise IP-100,2013-11-08 05:01:00,
2013-11-08 00:06:00,31.0,24.0,29.99,NNW,337,6.0,6.0,75,0.00,,,0.00,Rainwise IP-100,2013-11-08 05:06:00,
2013-11-08 00:11:00,31.0,23.0,29.99,NNW,337,7.0,12.0,72,0.00,,,0.00,Rainwise IP-100,2013-11-08 05:11:00,
2013-11-08 00:16:00,31.0,23.0,29.99,NW,315,6.0,10.0,73,0.00,,,0.00,Rainwise IP-100,2013-11-08 05:16:00,
2013-11-08 00:21:00,31.0,23.0,29.99,NW,315,9.0,10.0,71,0.00,,,0.00,Rainwise IP-100,2013-11-08 05:21:00,
2013-11-08 00:26:00,31.0,23.0,29.99,NW,315,9.0,9.0,72,0.00,,,0.00,Rainwise IP-100,2013-11-08 05:26:00,
2013-11-08 00:31:00,31.0,23.0,29.98,North,360,6.0,9.0,72,0.00,,,0.00,Rainwise IP-100,2013-11-08 05:31:00,
2013-11-08 00:36:00,31.0,23.0,29.98,NW,315,4.0,7.0,72,0.00,,,0.00,Rainwise IP-100,2013-11-08 05:36:00,
2013-11-08 00:41:00,31.0,23.0,29.99,NW,315,3.0,6.0,70,0.00,,,0.00,Rainwise IP-100,2013-11-08 05:41:00,
2013-11-08 00:46:00,31.0,23.0,29.99,NNW,337,2.0,6.0,71,0.00,,,0.00,Rainwise IP-100,2013-11-08 05:46:00,
2013-11-08 00:51:00,31.0,23.0,29.98,NW,315,3.0,6.0,71,0.00,,,0.00,Rainwise IP-100,2013-11-08 05:51:00,
2013-11-08 00:56:00,31.0,23.0,29.98,NW,315,6.0,7.0,69,0.00,,,0.00,Rainwise IP-100,2013-11-08 05:56:00,
2013-11-08 01:01:00,32.0,23.0,29.98,NW,315,6.0,9.0,68,0.00,,,0.00,Rainwise IP-100,2013-11-08 06:01:00,
2013-11-08 01:06:00,32.0,23.0,29.98,NNW,337,6.0,9.0,67,0.00,,,0.00,Rainwise IP-100,2013-11-08 06:06:00,
2013-11-08 01:11:00,32.0,23.0,29.98,North,360,6.0,9.0,68,0.00,,,0.00,Rainwise IP-100,2013-11-08 06:11:00,
2013-11-08 01:16:00,32.0,24.0,29.98,NW,315,4.0,8.0,70,0.00,,,0.00,Rainwise IP-100,2013-11-08 06:16:00,
2013-11-08 01:21:00,32.0,23.0,29.98,NNW,337,6.0,8.0,68,0.00,,,0.00,Rainwise IP-100,2013-11-08 06:21:00,
2013-11-08 01:26:00,32.0,23.0,29.98,NNW,337,5.0,8.0,68,0.00,,,0.00,Rainwise IP-100,2013-11-08 06:26:00,
2013-11-08 01:31:00,32.0,23.0,29.98,NNW,337,6.0,6.0,68,0.00,,,0.00,Rainwise IP-100,2013-11-08 06:31:00,
2013-11-08 01:36:00,32.0,23.0,29.98,NNW,337,8.0,9.0,67,0.00,,,0.00,Rainwise IP-100,2013-11-08 06:36:00,
2013-11-08 01:41:00,32.0,23.0,29.98,NW,315,5.0,8.0,68,0.00,,,0.00,Rainwise IP-100,2013-11-08 06:41:00,
2013-11-08 01:46:00,32.0,23.0,29.98,NNW,337,6.0,10.0,65,0.00,,,0.00,Rainwise IP-100,2013-11-08 06:46:00,
2013-11-08 01:51:00,32.0,23.0,29.96,NNW,337,2.0,8.0,66,0.00,,,0.00,Rainwise IP-100,2013-11-08 06:51:00,
2013-11-08 01:57:00,32.0,23.0,29.96,West,270,4.0,5.0,66,0.00,,,0.00,Rainwise IP-100,2013-11-08 06:57:00,
2013-11-08 02:02:00,32.0,23.0,29.98,NNW,337,1.0,6.0,66,0.00,,,0.00,Rainwise IP-100,2013-11-08 07:02:00,
2013-11-08 02:07:00,32.0,23.0,29.98,NW,315,2.0,7.0,67,0.00,,,0.00,Rainwise IP-100,2013-11-08 07:07:00,
2013-11-08 02:12:00,32.0,23.0,29.97,NW,315,0.0,5.0,67,0.00,,,0.00,Rainwise IP-100,2013-11-08 07:12:00,
2013-11-08 02:17:00,32.0,24.0,29.97,NNW,337,5.0,9.0,70,0.00,,,0.00,Rainwise IP-100,2013-11-08 07:17:00,
2013-11-08 02:22:00,32.0,23.0,29.96,NW,315,3.0,8.0,67,0.00,,,0.00,Rainwise IP-100,2013-11-08 07:22:00,
2013-11-08 02:27:00,32.0,23.0,29.96,NW,315,7.0,9.0,67,0.00,,,0.00,Rainwise IP-100,2013-11-08 07:27:00,
2013-11-08 02:32:00,32.0,23.0,29.97,NNW,337,3.0,9.0,69,0.00,,,0.00,Rainwise IP-100,2013-11-08 07:32:00,
2013-11-08 02:37:00,32.0,24.0,29.97,NW,315,0.0,9.0,70,0.00,,,0.00,Rainwise IP-100,2013-11-08 07:37:00,
2013-11-08 02:42:00,32.0,24.0,29.97,NNW,337,4.0,8.0,70,0.00,,,0.00,Rainwise IP-100,2013-11-08 07:42:00,
2013-11-08 02:47:00,32.0,23.0,29.97,NNW,337,4.0,9.0,68,0.00,,,0.00,Rainwise IP-100,2013-11-08 07:47:00,
2013-11-08 02:52:00,32.0,24.0,29.97,NNW,337,0.0,6.0,70,0.00,,,0.00,Rainwise IP-100,2013-11-08 07:52:00,
2013-11-08 02:57:00,33.0,24.0,29.97,NW,315,6.0,10.0,68,0.00,,,0.00,Rainwise IP-100,2013-11-08 07:57:00,
2013-11-08 03:02:00,33.0,24.0,29.96,North,360,2.0,7.0,70,0.00,,,0.00,Rainwise IP-100,2013-11-08 08:02:00,
2013-11-08 03:07:00,32.0,24.0,29.96,North,360,0.0,5.0,72,0.00,,,0.00,Rainwise IP-100,2013-11-08 08:07:00,
2013-11-08 03:12:00,32.0,24.0,29.97,NW,315,2.0,3.0,70,0.00,,,0.00,Rainwise IP-100,2013-11-08 08:12:00,
2013-11-08 03:17:00,32.0,23.0,29.97,NW,315,4.0,6.0,69,0.00,,,0.00,Rainwise IP-100,2013-11-08 08:17:00,
2013-11-08 03:22:00,32.0,24.0,29.97,NNW,337,2.0,8.0,71,0.00,,,0.00,Rainwise IP-100,2013-11-08 08:22:00,
2013-11-08 03:27:00,32.0,24.0,29.97,NNW,337,2.0,7.0,71,0.00,,,0.00,Rainwise IP-100,2013-11-08 08:27:00,
2013-11-08 03:32:00,32.0,24.0,29.97,NNW,337,0.0,3.0,73,0.00,,,0.00,Rainwise IP-100,2013-11-08 08:32:00,
2013-11-08 03:37:00,32.0,24.0,29.97,NNW,337,0.0,4.0,73,0.00,,,0.00,Rainwise IP-100,2013-11-08 08:37:00,
2013-11-08 03:42:00,32.0,24.0,29.97,East,90,0.0,2.0,72,0.00,,,0.00,Rainwise IP-100,2013-11-08 08:42:00,
2013-11-08 03:47:00,32.0,24.0,29.97,East,90,0.0,2.0,74,0.00,,,0.00,Rainwise IP-100,2013-11-08 08:47:00,
2013-11-08 03:52:00,32.0,24.0,29.97,ENE,67,2.0,2.0,74,0.00,,,0.00,Rainwise IP-100,2013-11-08 08:52:00,
2013-11-08 03:57:00,32.0,26.0,29.97,NE,45,0.0,3.0,76,0.00,,,0.00,Rainwise IP-100,2013-11-08 08:57:00,
2013-11-08 04:02:00,32.0,26.0,29.97,NNW,337,0.0,4.0,78,0.00,,,0.00,Rainwise IP-100,2013-11-08 09:02:00,
2013-11-08 04:07:00,32.0,26.0,29.97,NNW,337,0.0,1.0,78,0.00,,,0.00,Rainwise IP-100,2013-11-08 09:07:00,
2013-11-08 04:12:00,32.0,26.0,29.98,North,360,6.0,6.0,75,0.00,,,0.00,Rainwise IP-100,2013-11-08 09:12:00,
2013-11-08 04:17:00,32.0,24.0,29.98,NW,315,0.0,6.0,74,0.00,,,0.00,Rainwise IP-100,2013-11-08 09:17:00,
2013-11-08 04:22:00,32.0,26.0,29.98,NW,315,0.0,0.0,78,0.00,,,0.00,Rainwise IP-100,2013-11-08 09:22:00,
2013-11-08 04:27:00,32.0,26.0,29.98,NW,315,0.0,0.0,76,0.00,,,0.00,Rainwise IP-100,2013-11-08 09:27:00,
2013-11-08 04:32:00,32.0,26.0,29.98,East,90,4.0,5.0,76,0.00,,,0.00,Rainwise IP-100,2013-11-08 09:32:00,
2013-11-08 04:37:00,32.0,26.0,29.98,East,90,0.0,4.0,77,0.00,,,0.00,Rainwise IP-100,2013-11-08 09:37:00,
2013-11-08 04:42:00,32.0,26.0,29.98,East,90,0.0,1.0,76,0.00,,,0.00,Rainwise IP-100,2013-11-08 09:42:00,
2013-11-08 04:47:00,32.0,26.0,29.98,East,90,0.0,3.0,79,0.00,,,0.00,Rainwise IP-100,2013-11-08 09:47:00,
2013-11-08 04:52:00,32.0,26.0,29.98,WSW,247,3.0,5.0,80,0.00,,,0.00,Rainwise IP-100,2013-11-08 09:52:00,
2013-11-08 04:57:00,32.0,28.0,29.98,WSW,247,0.0,4.0,82,0.00,,,0.00,Rainwise IP-100,2013-11-08 09:57:00,
2013-11-08 05:02:00,32.0,28.0,29.98,WSW,247,0.0,1.0,81,0.00,,,0.00,Rainwise IP-100,2013-11-08 10:02:00,
2013-11-08 05:07:00,32.0,28.0,29.98,SE,135,4.0,6.0,82,0.00,,,0.00,Rainwise IP-100,2013-11-08 10:07:00,
2013-11-08 05:12:00,31.0,26.0,29.97,SSE,157,3.0,6.0,84,0.00,,,0.00,Rainwise IP-100,2013-11-08 10:12:00,
2013-11-08 05:17:00,32.0,24.0,29.97,SSE,157,0.0,6.0,73,0.00,,,0.00,Rainwise IP-100,2013-11-08 10:17:00,
2013-11-08 05:22:00,32.0,26.0,29.97,North,360,0.0,2.0,76,0.00,,,0.00,Rainwise IP-100,2013-11-08 10:22:00,
2013-11-08 05:27:00,32.0,26.0,29.97,ENE,67,2.0,2.0,77,0.00,,,0.00,Rainwise IP-100,2013-11-08 10:27:00,
2013-11-08 05:32:00,32.0,24.0,29.97,East,90,1.0,3.0,74,0.00,,,0.00,Rainwise IP-100,2013-11-08 10:32:00,
2013-11-08 05:37:00,32.0,24.0,29.97,WSW,247,1.0,3.0,71,0.00,,,0.00,Rainwise IP-100,2013-11-08 10:37:00,
2013-11-08 05:42:00,32.0,24.0,29.97,SW,225,0.0,5.0,70,0.00,,,0.00,Rainwise IP-100,2013-11-08 10:42:00,
2013-11-08 05:47:00,33.0,24.0,29.97,West,270,5.0,9.0,71,0.00,,,0.00,Rainwise IP-100,2013-11-08 10:47:00,
2013-11-08 05:52:00,33.0,24.0,29.96,West,270,6.0,8.0,70,0.00,,,0.00,Rainwise IP-100,2013-11-08 10:52:00,
2013-11-08 05:57:00,33.0,24.0,29.96,West,270,6.0,10.0,71,0.00,,,0.00,Rainwise IP-100,2013-11-08 10:57:00,
2013-11-08 06:02:00,33.0,24.0,29.96,SW,225,4.0,7.0,70,0.00,,,0.00,Rainwise IP-100,2013-11-08 11:02:00,
2013-11-08 06:07:00,33.0,24.0,29.96,WNW,292,5.0,12.0,68,0.00,,,0.00,Rainwise IP-100,2013-11-08 11:07:00,
2013-11-08 06:12:00,33.0,24.0,29.96,WNW,292,5.0,8.0,70,0.00,,,0.00,Rainwise IP-100,2013-11-08 11:12:00,
2013-11-08 06:17:00,33.0,24.0,29.96,West,270,4.0,12.0,68,0.00,,,0.00,Rainwise IP-100,2013-11-08 11:17:00,
2013-11-08 06:22:00,33.0,24.0,29.97,West,270,2.0,6.0,69,0.00,,,0.00,Rainwise IP-100,2013-11-08 11:22:00,
2013-11-08 06:27:00,32.0,24.0,29.97,NW,315,3.0,7.0,72,0.00,,,0.00,Rainwise IP-100,2013-11-08 11:27:00,
2013-11-08 06:32:00,32.0,24.0,29.98,NW,315,0.0,3.0,72,0.00,,,0.00,Rainwise IP-100,2013-11-08 11:32:00,
2013-11-08 06:37:00,32.0,24.0,29.98,NW,315,0.0,0.0,73,0.00,,,0.00,Rainwise IP-100,2013-11-08 11:37:00,
2013-11-08 06:42:00,31.0,23.0,29.98,NW,315,0.0,2.0,72,0.00,,,0.00,Rainwise IP-100,2013-11-08 11:42:00,
2013-11-08 06:47:00,32.0,24.0,29.98,NW,315,6.0,11.0,70,0.00,,,0.00,Rainwise IP-100,2013-11-08 11:47:00,
2013-11-08 06:52:00,33.0,24.0,29.98,NW,315,6.0,15.0,68,0.00,,,0.00,Rainwise IP-100,2013-11-08 11:52:00,
2013-11-08 06:57:00,32.0,23.0,29.98,NNW,337,5.0,12.0,69,0.00,,,0.00,Rainwise IP-100,2013-11-08 11:57:00,
2013-11-08 07:02:00,32.0,24.0,29.98,NNW,337,6.0,7.0,70,0.00,,,0.00,Rainwise IP-100,2013-11-08 12:02:00,
2013-11-08 07:07:00,32.0,24.0,29.98,NW,315,6.0,11.0,70,0.00,,,0.00,Rainwise IP-100,2013-11-08 12:07:00,
2013-11-08 07:12:00,32.0,24.0,30.00,North,360,6.0,7.0,70,0.00,,,0.00,Rainwise IP-100,2013-11-08 12:12:00,
2013-11-08 07:17:00,32.0,23.0,30.00,NW,315,8.0,11.0,69,0.00,,,0.00,Rainwise IP-100,2013-11-08 12:17:00,
2013-11-08 07:22:00,32.0,24.0,30.00,NNW,337,4.0,10.0,70,0.00,,,0.00,Rainwise IP-100,2013-11-08 12:22:00,
2013-11-08 07:27:00,32.0,24.0,30.00,NW,315,3.0,5.0,71,0.00,,,0.00,Rainwise IP-100,2013-11-08 12:27:00,
2013-11-08 07:32:00,33.0,24.0,30.00,WNW,292,3.0,10.0,70,0.00,,,0.00,Rainwise IP-100,2013-11-08 12:32:00,
2013-11-08 07:37:00,33.0,24.0,30.00,North,360,9.0,14.0,68,0.00,,,0.00,Rainwise IP-100,2013-11-08 12:37:00,
2013-11-08 07:42:00,33.0,24.0,30.01,WNW,292,5.0,16.0,69,0.00,,,0.00,Rainwise IP-100,2013-11-08 12:42:00,
2013-11-08 07:47:00,33.0,24.0,30.01,North,360,8.0,12.0,68,0.00,,,0.00,Rainwise IP-100,2013-11-08 12:47:00,
2013-11-08 07:52:00,33.0,24.0,30.01,NW,315,7.0,15.0,67,0.00,,,0.00,Rainwise IP-100,2013-11-08 12:52:00,
2013-11-08 07:57:00,33.0,24.0,30.01,NNW,337,0.0,9.0,69,0.00,,,0.00,Rainwise IP-100,2013-11-08 12:57:00,
2013-11-08 08:02:00,33.0,24.0,30.01,North,360,2.0,7.0,68,0.00,,,0.00,Rainwise IP-100,2013-11-08 13:02:00,
2013-11-08 08:07:00,33.0,24.0,30.01,North,360,1.0,4.0,69,0.00,,,0.00,Rainwise IP-100,2013-11-08 13:07:00,
2013-11-08 08:12:00,34.0,26.0,30.01,North,360,6.0,6.0,70,0.00,,,0.00,Rainwise IP-100,2013-11-08 13:12:00,
2013-11-08 08:17:00,34.0,26.0,30.01,North,360,5.0,6.0,71,0.00,,,0.00,Rainwise IP-100,2013-11-08 13:17:00,
2013-11-08 08:22:00,34.0,26.0,30.00,NE,45,4.0,6.0,71,0.00,,,0.00,Rainwise IP-100,2013-11-08 13:22:00,
2013-11-08 08:27:00,35.0,24.0,30.00,NNE,22,4.0,6.0,67,0.00,,,0.00,Rainwise IP-100,2013-11-08 13:27:00,
2013-11-08 08:32:00,35.0,24.0,30.00,North,360,11.0,11.0,65,0.00,,,0.00,Rainwise IP-100,2013-11-08 13:32:00,
2013-11-08 08:37:00,35.0,24.0,30.00,North,360,6.0,16.0,66,0.00,,,0.00,Rainwise IP-100,2013-11-08 13:37:00,
2013-11-08 08:42:00,34.0,24.0,30.01,North,360,7.0,13.0,67,0.00,,,0.00,Rainwise IP-100,2013-11-08 13:42:00,
2013-11-08 08:47:00,34.0,26.0,30.01,NW,315,6.0,10.0,68,0.00,,,0.00,Rainwise IP-100,2013-11-08 13:47:00,
2013-11-08 08:52:00,34.0,26.0,30.01,North,360,9.0,11.0,70,0.00,,,0.00,Rainwise IP-100,2013-11-08 13:52:00,
2013-11-08 08:57:00,35.0,26.0,30.01,NW,315,6.0,10.0,68,0.00,,,0.00,Rainwise IP-100,2013-11-08 13:57:00,
2013-11-08 09:02:00,35.0,24.0,30.01,WNW,292,3.0,11.0,66,0.00,,,0.00,Rainwise IP-100,2013-11-08 14:02:00,
2013-11-08 09:07:00,35.0,26.0,30.01,NW,315,6.0,9.0,69,0.00,,,0.00,Rainwise IP-100,2013-11-08 14:07:00,
2013-11-08 09:12:00,35.0,26.0,30.01,NNW,337,9.0,9.0,69,0.00,,,0.00,Rainwise IP-100,2013-11-08 14:12:00,
2013-11-08 09:17:00,35.0,26.0,30.01,NNE,22,9.0,9.0,68,0.00,,,0.00,Rainwise IP-100,2013-11-08 14:17:00,
2013-11-08 09:22:00,35.0,26.0,30.01,NNE,22,10.0,12.0,70,0.00,,,0.00,Rainwise IP-100,2013-11-08 14:22:00,
2013-11-08 09:27:00,35.0,26.0,30.01,NNW,337,9.0,12.0,71,0.00,,,0.00,Rainwise IP-100,2013-11-08 14:27:00,
2013-11-08 09:32:00,35.0,26.0,30.01,North,360,6.0,12.0,70,0.00,,,0.00,Rainwise IP-100,2013-11-08 14:32:00,
2013-11-08 09:37:00,35.0,26.0,30.01,North,360,6.0,9.0,70,0.00,,,0.00,Rainwise IP-100,2013-11-08 14:37:00,
2013-11-08 09:42:00,35.0,26.0,30.01,North,360,4.0,8.0,72,0.00,,,0.00,Rainwise IP-100,2013-11-08 14:42:00,
2013-11-08 09:47:00,35.0,26.0,30.01,NNE,22,5.0,10.0,69,0.00,,,0.00,Rainwise IP-100,2013-11-08 14:47:00,
2013-11-08 09:52:00,35.0,26.0,30.01,NNE,22,7.0,9.0,69,0.00,,,0.00,Rainwise IP-100,2013-11-08 14:52:00,
2013-11-08 09:57:00,35.0,26.0,30.01,North,360,4.0,9.0,69,0.00,,,0.00,Rainwise IP-100,2013-11-08 14:57:00,
2013-11-08 10:02:00,35.0,26.0,30.01,NNW,337,7.0,10.0,70,0.00,,,0.00,Rainwise IP-100,2013-11-08 15:02:00,
2013-11-08 10:07:00,35.0,26.0,30.01,NNE,22,6.0,10.0,71,0.00,,,0.00,Rainwise IP-100,2013-11-08 15:07:00,
2013-11-08 10:12:00,35.0,26.0,30.01,ENE,67,6.0,7.0,72,0.00,,,0.00,Rainwise IP-100,2013-11-08 15:12:00,
2013-11-08 10:17:00,35.0,26.0,30.01,NNW,337,4.0,10.0,70,0.00,,,0.00,Rainwise IP-100,2013-11-08 15:17:00,
2013-11-08 10:22:00,36.0,28.0,30.01,North,360,6.0,7.0,70,0.00,,,0.00,Rainwise IP-100,2013-11-08 15:22:00,
2013-11-08 10:27:00,36.0,26.0,30.01,NE,45,3.0,8.0,68,0.00,,,0.00,Rainwise IP-100,2013-11-08 15:27:00,
2013-11-08 10:32:00,36.0,28.0,30.01,North,360,10.0,10.0,71,0.00,,,0.00,Rainwise IP-100,2013-11-08 15:32:00,
2013-11-08 10:37:00,36.0,28.0,30.01,NNW,337,3.0,15.0,72,0.00,,,0.00,Rainwise IP-100,2013-11-08 15:37:00,
2013-11-08 10:42:00,36.0,28.0,30.01,WSW,247,2.0,9.0,70,0.00,,,0.00,Rainwise IP-100,2013-11-08 15:42:00,
2013-11-08 10:47:00,36.0,28.0,30.01,NW,315,6.0,6.0,72,0.00,,,0.00,Rainwise IP-100,2013-11-08 15:47:00,
2013-11-08 10:52:00,35.0,26.0,30.01,NNW,337,10.0,12.0,69,0.00,,,0.00,Rainwise IP-100,2013-11-08 15:52:00,
2013-11-08 10:57:00,35.0,26.0,30.01,NW,315,9.0,11.0,72,0.00,,,0.00,Rainwise IP-100,2013-11-08 15:57:00,
2013-11-08 11:02:00,35.0,26.0,30.01,North,360,8.0,10.0,71,0.00,,,0.00,Rainwise IP-100,2013-11-08 16:02:00,
2013-11-08 11:07:00,35.0,26.0,30.01,NW,315,2.0,11.0,70,0.00,,,0.00,Rainwise IP-100,2013-11-08 16:07:00,
2013-11-08 11:12:00,35.0,28.0,30.01,NW,315,8.0,9.0,73,0.00,,,0.00,Rainwise IP-100,2013-11-08 16:12:00,
2013-11-08 11:17:00,35.0,26.0,30.01,NW,315,2.0,13.0,72,0.00,,,0.00,Rainwise IP-100,2013-11-08 16:17:00,
2013-11-08 11:22:00,35.0,28.0,30.01,NW,315,4.0,7.0,73,0.00,,,0.00,Rainwise IP-100,2013-11-08 16:22:00,
2013-11-08 11:27:00,35.0,26.0,30.01,North,360,7.0,12.0,72,0.00,,,0.00,Rainwise IP-100,2013-11-08 16:27:00,
2013-11-08 11:32:00,35.0,26.0,30.01,NNW,337,6.0,10.0,71,0.00,,,0.00,Rainwise IP-100,2013-11-08 16:32:00,
2013-11-08 11:37:00,35.0,26.0,30.01,NW,315,9.0,13.0,72,0.00,,,0.00,Rainwise IP-100,2013-11-08 16:37:00,
2013-11-08 11:42:00,35.0,28.0,30.01,NNW,337,8.0,14.0,74,0.00,,,0.00,Rainwise IP-100,2013-11-08 16:42:00,
2013-11-08 11:47:00,35.0,28.0,30.01,NW,315,6.0,10.0,73,0.00,,,0.00,Rainwise IP-100,2013-11-08 16:47:00,
2013-11-08 11:52:00,34.0,28.0,30.01,NW,315,10.0,12.0,77,0.00,,,0.00,Rainwise IP-100,2013-11-08 16:52:00,
2013-11-08 11:57:00,34.0,29.0,30.01,NW,315,9.0,16.0,80,0.00,,,0.00,Rainwise IP-100,2013-11-08 16:57:00,
2013-11-08 12:02:00,34.0,29.0,30.01,NNW,337,3.0,14.0,79,0.00,,,0.00,Rainwise IP-100,2013-11-08 17:02:00,
2013-11-08 12:07:00,34.0,29.0,30.01,North,360,10.0,10.0,79,0.00,,,0.00,Rainwise IP-100,2013-11-08 17:07:00,
2013-11-08 12:12:00,34.0,29.0,30.01,North,360,2.0,11.0,78,0.00,,,0.00,Rainwise IP-100,2013-11-08 17:12:00,
2013-11-08 12:17:00,34.0,29.0,30.01,North,360,6.0,9.0,78,0.00,,,0.00,Rainwise IP-100,2013-11-08 17:17:00,
2013-11-08 12:22:00,34.0,28.0,30.01,North,360,9.0,13.0,76,0.00,,,0.00,Rainwise IP-100,2013-11-08 17:22:00,
2013-11-08 12:27:00,34.0,28.0,30.01,North,360,6.0,12.0,75,0.00,,,0.00,Rainwise IP-100,2013-11-08 17:27:00,
2013-11-08 12:32:00,35.0,24.0,30.01,North,360,9.0,22.0,67,0.00,,,0.00,Rainwise IP-100,2013-11-08 17:32:00,
2013-11-08 12:37:00,35.0,24.0,30.01,NNW,337,15.0,22.0,65,0.00,,,0.00,Rainwise IP-100,2013-11-08 17:37:00,
2013-11-08 12:42:00,35.0,24.0,30.01,NNW,337,22.0,29.0,67,0.00,,,0.00,Rainwise IP-100,2013-11-08 17:42:00,
2013-11-08 12:47:00,34.0,29.0,30.01,NW,315,10.0,29.0,80,0.00,,,0.00,Rainwise IP-100,2013-11-08 17:47:00,
2013-11-08 12:52:00,33.0,28.0,30.03,NW,315,6.0,14.0,79,0.00,,,0.00,Rainwise IP-100,2013-11-08 17:52:00,
2013-11-08 12:57:00,33.0,26.0,30.03,NW,315,8.0,13.0,76,0.00,,,0.00,Rainwise IP-100,2013-11-08 17:57:00,
2013-11-08 13:02:00,33.0,26.0,30.03,NNW,337,10.0,21.0,76,0.00,,,0.00,Rainwise IP-100,2013-11-08 18:02:00,
2013-11-08 13:07:00,34.0,26.0,30.03,NW,315,16.0,16.0,72,0.00,,,0.00,Rainwise IP-100,2013-11-08 18:07:00,
2013-11-08 13:12:00,34.0,24.0,30.02,NNW,337,24.0,26.0,66,0.00,,,0.00,Rainwise IP-100,2013-11-08 18:12:00,
2013-11-08 13:17:00,34.0,24.0,30.02,North,360,7.0,24.0,67,0.00,,,0.00,Rainwise IP-100,2013-11-08 18:17:00,
2013-11-08 13:22:00,34.0,26.0,30.02,NNW,337,14.0,20.0,68,0.00,,,0.00,Rainwise IP-100,2013-11-08 18:22:00,
2013-11-08 13:27:00,34.0,24.0,30.02,NW,315,7.0,23.0,65,0.00,,,0.00,Rainwise IP-100,2013-11-08 18:27:00,
2013-11-08 13:32:00,34.0,24.0,30.04,NNW,337,13.0,19.0,66,0.00,,,0.00,Rainwise IP-100,2013-11-08 18:32:00,
2013-11-08 13:37:00,34.0,26.0,30.04,NNW,337,8.0,15.0,69,0.00,,,0.00,Rainwise IP-100,2013-11-08 18:37:00,
2013-11-08 13:42:00,33.0,26.0,30.04,NNW,337,9.0,16.0,72,0.00,,,0.00,Rainwise IP-100,2013-11-08 18:42:00,
2013-11-08 13:47:00,33.0,24.0,30.04,NW,315,9.0,16.0,71,0.00,,,0.00,Rainwise IP-100,2013-11-08 18:47:00,
2013-11-08 13:52:00,33.0,26.0,30.05,NNW,337,8.0,13.0,73,0.00,,,0.00,Rainwise IP-100,2013-11-08 18:52:00,
2013-11-08 13:57:00,32.0,24.0,30.05,NNW,337,12.0,19.0,74,0.00,,,0.00,Rainwise IP-100,2013-11-08 18:57:00,
2013-11-08 14:02:00,32.0,26.0,30.05,NW,315,10.0,17.0,77,0.00,,,0.00,Rainwise IP-100,2013-11-08 19:02:00,
2013-11-08 14:07:00,32.0,28.0,30.05,NW,315,9.0,15.0,82,0.00,,,0.00,Rainwise IP-100,2013-11-08 19:07:00,
2013-11-08 14:12:00,31.0,26.0,30.07,NW,315,10.0,15.0,83,0.00,,,0.00,Rainwise IP-100,2013-11-08 19:12:00,
2013-11-08 14:17:00,32.0,28.0,30.07,NW,315,7.0,16.0,81,0.00,,,0.00,Rainwise IP-100,2013-11-08 19:17:00,
2013-11-08 14:22:00,32.0,26.0,30.07,NW,315,6.0,13.0,79,0.00,,,0.00,Rainwise IP-100,2013-11-08 19:22:00,
2013-11-08 14:27:00,32.0,24.0,30.07,North,360,9.0,20.0,73,0.00,,,0.00,Rainwise IP-100,2013-11-08 19:27:00,
2013-11-08 14:32:00,33.0,26.0,30.07,North,360,13.0,20.0,73,0.00,,,0.00,Rainwise IP-100,2013-11-08 19:32:00,
2013-11-08 14:37:00,33.0,24.0,30.07,NW,315,12.0,17.0,71,0.00,,,0.00,Rainwise IP-100,2013-11-08 19:37:00,
2013-11-08 14:42:00,33.0,24.0,30.06,NW,315,8.0,21.0,69,0.00,,,0.00,Rainwise IP-100,2013-11-08 19:42:00,
2013-11-08 14:47:00,33.0,24.0,30.06,NNW,337,6.0,13.0,71,0.00,,,0.00,Rainwise IP-100,2013-11-08 19:47:00,
2013-11-08 14:52:00,33.0,24.0,30.07,WNW,292,13.0,13.0,70,0.00,,,0.00,Rainwise IP-100,2013-11-08 19:52:00,
2013-11-08 14:57:00,33.0,26.0,30.07,NNW,337,11.0,20.0,72,0.00,,,0.00,Rainwise IP-100,2013-11-08 19:57:00,
2013-11-08 15:02:00,33.0,26.0,30.07,North,360,9.0,16.0,72,0.00,,,0.00,Rainwise IP-100,2013-11-08 20:02:00,
2013-11-08 15:07:00,33.0,24.0,30.07,North,360,13.0,15.0,71,0.00,,,0.00,Rainwise IP-100,2013-11-08 20:07:00,
2013-11-08 15:12:00,33.0,26.0,30.07,NNW,337,8.0,16.0,72,0.00,,,0.00,Rainwise IP-100,2013-11-08 20:12:00,
2013-11-08 15:17:00,33.0,26.0,30.07,NW,315,6.0,10.0,73,0.00,,,0.00,Rainwise IP-100,2013-11-08 20:17:00,
2013-11-08 15:22:00,33.0,26.0,30.08,South,180,0.0,12.0,75,0.00,,,0.00,Rainwise IP-100,2013-11-08 20:22:00,
2013-11-08 15:27:00,33.0,24.0,30.08,West,270,8.0,17.0,71,0.00,,,0.00,Rainwise IP-100,2013-11-08 20:27:00,
2013-11-08 15:32:00,33.0,24.0,30.08,NW,315,8.0,13.0,70,0.00,,,0.00,Rainwise IP-100,2013-11-08 20:32:00,
2013-11-08 15:37:00,33.0,26.0,30.08,NW,315,6.0,21.0,73,0.00,,,0.00,Rainwise IP-100,2013-11-08 20:37:00,
2013-11-08 15:42:00,33.0,26.0,30.09,NNW,337,9.0,13.0,73,0.00,,,0.00,Rainwise IP-100,2013-11-08 20:42:00,
2013-11-08 15:47:00,33.0,26.0,30.09,NW,315,10.0,14.0,73,0.00,,,0.00,Rainwise IP-100,2013-11-08 20:47:00,
2013-11-08 15:52:00,32.0,24.0,30.09,WNW,292,10.0,13.0,72,0.00,,,0.00,Rainwise IP-100,2013-11-08 20:52:00,
2013-11-08 15:57:00,32.0,24.0,30.09,NNW,337,6.0,13.0,73,0.00,,,0.00,Rainwise IP-100,2013-11-08 20:57:00,
2013-11-08 16:02:00,32.0,24.0,30.09,North,360,13.0,13.0,71,0.00,,,0.00,Rainwise IP-100,2013-11-08 21:02:00,
2013-11-08 16:07:00,33.0,24.0,30.09,NW,315,8.0,15.0,70,0.00,,,0.00,Rainwise IP-100,2013-11-08 21:07:00,
2013-11-08 16:12:00,33.0,24.0,30.10,NW,315,10.0,21.0,69,0.00,,,0.00,Rainwise IP-100,2013-11-08 21:12:00,
2013-11-08 16:17:00,33.0,24.0,30.10,NW,315,16.0,23.0,68,0.00,,,0.00,Rainwise IP-100,2013-11-08 21:17:00,
2013-11-08 16:22:00,33.0,24.0,30.10,NW,315,17.0,25.0,69,0.00,,,0.00,Rainwise IP-100,2013-11-08 21:22:00,
2013-11-08 16:27:00,33.0,24.0,30.10,West,270,9.0,21.0,69,0.00,,,0.00,Rainwise IP-100,2013-11-08 21:27:00,
2013-11-08 16:32:00,33.0,24.0,30.09,NW,315,5.0,22.0,69,0.00,,,0.00,Rainwise IP-100,2013-11-08 21:32:00,
2013-11-08 16:37:00,33.0,24.0,30.09,WNW,292,11.0,17.0,69,0.00,,,0.00,Rainwise IP-100,2013-11-08 21:37:00,
2013-11-08 16:42:00,33.0,24.0,30.10,NNW,337,9.0,21.0,68,0.00,,,0.00,Rainwise IP-100,2013-11-08 21:42:00,
2013-11-08 16:47:00,33.0,24.0,30.10,North,360,15.0,24.0,68,0.00,,,0.00,Rainwise IP-100,2013-11-08 21:47:00,
2013-11-08 16:52:00,33.0,24.0,30.11,NW,315,10.0,24.0,67,0.00,,,0.00,Rainwise IP-100,2013-11-08 21:52:00,
2013-11-08 16:57:00,33.0,24.0,30.11,NNW,337,6.0,16.0,67,0.00,,,0.00,Rainwise IP-100,2013-11-08 21:57:00,
2013-11-08 17:02:00,33.0,24.0,30.11,WNW,292,7.0,15.0,66,0.00,,,0.00,Rainwise IP-100,2013-11-08 22:02:00,
2013-11-08 17:07:00,33.0,24.0,30.11,WNW,292,13.0,13.0,67,0.00,,,0.00,Rainwise IP-100,2013-11-08 22:07:00,
2013-11-08 17:12:00,33.0,24.0,30.11,NW,315,16.0,20.0,67,0.00,,,0.00,Rainwise IP-100,2013-11-08 22:12:00,
2013-11-08 17:17:00,33.0,24.0,30.11,North,360,9.0,20.0,66,0.00,,,0.00,Rainwise IP-100,2013-11-08 22:17:00,
2013-11-08 17:22:00,33.0,24.0,30.12,West,270,9.0,20.0,67,0.00,,,0.00,Rainwise IP-100,2013-11-08 22:22:00,
2013-11-08 17:27:00,33.0,24.0,30.12,NNW,337,5.0,19.0,68,0.00,,,0.00,Rainwise IP-100,2013-11-08 22:27:00,
2013-11-08 17:32:00,33.0,24.0,30.13,NW,315,9.0,17.0,69,0.00,,,0.00,Rainwise IP-100,2013-11-08 22:32:00,
2013-11-08 17:37:00,33.0,24.0,30.13,WNW,292,10.0,25.0,71,0.00,,,0.00,Rainwise IP-100,2013-11-08 22:37:00,
2013-11-08 17:42:00,32.0,24.0,30.13,NNW,337,10.0,21.0,72,0.00,,,0.00,Rainwise IP-100,2013-11-08 22:42:00,
2013-11-08 17:47:00,32.0,24.0,30.13,North,360,9.0,17.0,73,0.00,,,0.00,Rainwise IP-100,2013-11-08 22:47:00,
2013-11-08 17:52:00,32.0,26.0,30.15,NNW,337,14.0,15.0,75,0.00,,,0.00,Rainwise IP-100,2013-11-08 22:52:00,
2013-11-08 17:57:00,32.0,26.0,30.15,WNW,292,2.0,16.0,76,0.00,,,0.00,Rainwise IP-100,2013-11-08 22:57:00,
2013-11-08 18:02:00,32.0,24.0,30.15,NNW,337,9.0,15.0,74,0.00,,,0.00,Rainwise IP-100,2013-11-08 23:02:00,
2013-11-08 18:07:00,32.0,26.0,30.15,NW,315,5.0,12.0,75,0.00,,,0.00,Rainwise IP-100,2013-11-08 23:07:00,
2013-11-08 18:12:00,32.0,26.0,30.15,NW,315,4.0,11.0,75,0.00,,,0.00,Rainwise IP-100,2013-11-08 23:12:00,
2013-11-08 18:17:00,32.0,24.0,30.15,WNW,292,14.0,22.0,72,0.00,,,0.00,Rainwise IP-100,2013-11-08 23:17:00,
2013-11-08 18:22:00,32.0,24.0,30.14,North,360,12.0,17.0,73,0.00,,,0.00,Rainwise IP-100,2013-11-08 23:22:00,
2013-11-08 18:27:00,32.0,24.0,30.14,NNW,337,12.0,25.0,71,0.00,,,0.00,Rainwise IP-100,2013-11-08 23:27:00,
2013-11-08 18:32:00,32.0,24.0,30.15,NW,315,14.0,25.0,72,0.00,,,0.00,Rainwise IP-100,2013-11-08 23:32:00,
2013-11-08 18:37:00,32.0,24.0,30.15,NW,315,4.0,17.0,74,0.00,,,0.00,Rainwise IP-100,2013-11-08 23:37:00,
2013-11-08 18:42:00,32.0,24.0,30.16,NW,315,9.0,19.0,71,0.00,,,0.00,Rainwise IP-100,2013-11-08 23:42:00,
2013-11-08 18:47:00,32.0,24.0,30.16,NW,315,12.0,16.0,71,0.00,,,0.00,Rainwise IP-100,2013-11-08 23:47:00,
2013-11-08 18:52:00,32.0,23.0,30.17,North,360,6.0,29.0,68,0.00,,,0.00,Rainwise IP-100,2013-11-08 23:52:00,
2013-11-08 18:57:00,33.0,24.0,30.17,NW,315,15.0,25.0,67,0.00,,,0.00,Rainwise IP-100,2013-11-08 23:57:00,
2013-11-08 19:02:00,33.0,24.0,30.15,NW,315,13.0,22.0,68,0.00,,,0.00,Rainwise IP-100,2013-11-09 00:02:00,
2013-11-08 19:07:00,33.0,24.0,30.15,NNW,337,16.0,26.0,67,0.00,,,0.00,Rainwise IP-100,2013-11-09 00:07:00,
2013-11-08 19:12:00,33.0,24.0,30.16,NNW,337,16.0,18.0,67,0.00,,,0.00,Rainwise IP-100,2013-11-09 00:12:00,
2013-11-08 19:17:00,32.0,23.0,30.16,WNW,292,13.0,18.0,68,0.00,,,0.00,Rainwise IP-100,2013-11-09 00:17:00,
2013-11-08 19:22:00,32.0,23.0,30.17,NNW,337,10.0,20.0,67,0.00,,,0.00,Rainwise IP-100,2013-11-09 00:22:00,
2013-11-08 19:27:00,33.0,24.0,30.17,NW,315,12.0,24.0,66,0.00,,,0.00,Rainwise IP-100,2013-11-09 00:27:00,
2013-11-08 19:32:00,33.0,24.0,30.16,NNW,337,15.0,20.0,66,0.00,,,0.00,Rainwise IP-100,2013-11-09 00:32:00,
2013-11-08 19:37:00,32.0,23.0,30.16,NNE,22,8.0,17.0,67,0.00,,,0.00,Rainwise IP-100,2013-11-09 00:37:00,
2013-11-08 19:42:00,32.0,23.0,30.17,North,360,4.0,19.0,67,0.00,,,0.00,Rainwise IP-100,2013-11-09 00:42:00,
2013-11-08 19:47:00,32.0,23.0,30.17,North,360,9.0,22.0,67,0.00,,,0.00,Rainwise IP-100,2013-11-09 00:47:00,
2013-11-08 19:52:00,32.0,23.0,30.17,NNW,337,6.0,15.0,68,0.00,,,0.00,Rainwise IP-100,2013-11-09 00:52:00,
2013-11-08 19:57:00,32.0,23.0,30.17,WNW,292,6.0,25.0,66,0.00,,,0.00,Rainwise IP-100,2013-11-09 00:57:00,
2013-11-08 20:02:00,33.0,24.0,30.17,NW,315,15.0,24.0,66,0.00,,,0.00,Rainwise IP-100,2013-11-09 01:02:00,
2013-11-08 20:07:00,33.0,24.0,30.17,NW,315,16.0,23.0,66,0.00,,,0.00,Rainwise IP-100,2013-11-09 01:07:00,
2013-11-08 20:12:00,33.0,24.0,30.17,NW,315,13.0,27.0,66,0.00,,,0.00,Rainwise IP-100,2013-11-09 01:12:00,
2013-11-08 20:17:00,33.0,24.0,30.17,NW,315,10.0,23.0,66,0.00,,,0.00,Rainwise IP-100,2013-11-09 01:17:00,
2013-11-08 20:22:00,33.0,24.0,30.18,NE,45,6.0,19.0,66,0.00,,,0.00,Rainwise IP-100,2013-11-09 01:22:00,
2013-11-08 20:27:00,33.0,23.0,30.18,North,360,6.0,23.0,65,0.00,,,0.00,Rainwise IP-100,2013-11-09 01:27:00,
2013-11-08 20:32:00,33.0,23.0,30.18,NNW,337,23.0,23.0,65,0.00,,,0.00,Rainwise IP-100,2013-11-09 01:32:00,
2013-11-08 20:37:00,33.0,23.0,30.18,NW,315,16.0,23.0,65,0.00,,,0.00,Rainwise IP-100,2013-11-09 01:37:00,
2013-11-08 20:42:00,33.0,24.0,30.16,NW,315,6.0,26.0,66,0.00,,,0.00,Rainwise IP-100,2013-11-09 01:42:00,
2013-11-08 20:47:00,33.0,23.0,30.16,NW,315,13.0,22.0,65,0.00,,,0.00,Rainwise IP-100,2013-11-09 01:47:00,
2013-11-08 20:52:00,33.0,24.0,30.18,NNW,337,7.0,17.0,66,0.00,,,0.00,Rainwise IP-100,2013-11-09 01:52:00,
2013-11-08 20:57:00,33.0,23.0,30.18,NNW,337,16.0,17.0,65,0.00,,,0.00,Rainwise IP-100,2013-11-09 01:57:00,
2013-11-08 21:02:00,33.0,23.0,30.19,North,360,15.0,22.0,65,0.00,,,0.00,Rainwise IP-100,2013-11-09 02:02:00,
2013-11-08 21:07:00,33.0,23.0,30.19,WNW,292,15.0,31.0,65,0.00,,,0.00,Rainwise IP-100,2013-11-09 02:07:00,
2013-11-08 21:12:00,33.0,23.0,30.19,NW,315,16.0,31.0,65,0.00,,,0.00,Rainwise IP-100,2013-11-09 02:12:00,
2013-11-08 21:17:00,33.0,23.0,30.19,NNW,337,9.0,21.0,65,0.00,,,0.00,Rainwise IP-100,2013-11-09 02:17:00,
2013-11-08 21:22:00,33.0,23.0,30.19,NNW,337,9.0,18.0,65,0.00,,,0.00,Rainwise IP-100,2013-11-09 02:22:00,
2013-11-08 21:27:00,32.0,23.0,30.19,NNW,337,6.0,12.0,65,0.00,,,0.00,Rainwise IP-100,2013-11-09 02:27:00,
2013-11-08 21:32:00,33.0,23.0,30.19,NNW,337,13.0,15.0,65,0.00,,,0.00,Rainwise IP-100,2013-11-09 02:32:00,
2013-11-08 21:37:00,33.0,23.0,30.19,NNW,337,10.0,26.0,65,0.00,,,0.00,Rainwise IP-100,2013-11-09 02:37:00,
2013-11-08 21:42:00,33.0,23.0,30.19,NW,315,12.0,22.0,65,0.00,,,0.00,Rainwise IP-100,2013-11-09 02:42:00,
2013-11-08 21:47:00,32.0,23.0,30.19,North,360,12.0,20.0,65,0.00,,,0.00,Rainwise IP-100,2013-11-09 02:47:00,
2013-11-08 21:52:00,32.0,23.0,30.20,NW,315,8.0,16.0,65,0.00,,,0.00,Rainwise IP-100,2013-11-09 02:52:00,
2013-11-08 21:57:00,32.0,23.0,30.20,WNW,292,8.0,16.0,66,0.00,,,0.00,Rainwise IP-100,2013-11-09 02:57:00,
2013-11-08 22:02:00,32.0,23.0,30.20,NE,45,6.0,16.0,66,0.00,,,0.00,Rainwise IP-100,2013-11-09 03:02:00,
2013-11-08 22:07:00,32.0,23.0,30.20,North,360,9.0,17.0,65,0.00,,,0.00,Rainwise IP-100,2013-11-09 03:07:00,
2013-11-08 22:12:00,32.0,23.0,30.21,NNW,337,3.0,15.0,65,0.00,,,0.00,Rainwise IP-100,2013-11-09 03:12:00,
2013-11-08 22:17:00,32.0,23.0,30.21,NNW,337,13.0,19.0,65,0.00,,,0.00,Rainwise IP-100,2013-11-09 03:17:00,
2013-11-08 22:22:00,32.0,23.0,30.20,NNW,337,12.0,17.0,65,0.00,,,0.00,Rainwise IP-100,2013-11-09 03:22:00,
2013-11-08 22:27:00,32.0,23.0,30.20,NW,315,15.0,24.0,65,0.00,,,0.00,Rainwise IP-100,2013-11-09 03:27:00,
2013-11-08 22:32:00,32.0,23.0,30.21,NW,315,14.0,21.0,65,0.00,,,0.00,Rainwise IP-100,2013-11-09 03:32:00,
2013-11-08 22:37:00,32.0,23.0,30.21,NW,315,16.0,19.0,65,0.00,,,0.00,Rainwise IP-100,2013-11-09 03:37:00,
2013-11-08 22:42:00,32.0,23.0,30.21,NNW,337,12.0,22.0,64,0.00,,,0.00,Rainwise IP-100,2013-11-09 03:42:00,
2013-11-08 22:47:00,32.0,23.0,30.21,NNW,337,12.0,19.0,65,0.00,,,0.00,Rainwise IP-100,2013-11-09 03:47:00,
2013-11-08 22:52:00,32.0,23.0,30.21,NNW,337,11.0,23.0,64,0.00,,,0.00,Rainwise IP-100,2013-11-09 03:52:00,
2013-11-08 22:57:00,32.0,23.0,30.21,North,360,15.0,25.0,64,0.00,,,0.00,Rainwise IP-100,2013-11-09 03:57:00,
2013-11-08 23:02:00,32.0,23.0,30.21,North,360,12.0,20.0,64,0.00,,,0.00,Rainwise IP-100,2013-11-09 04:02:00,
2013-11-08 23:07:00,32.0,23.0,30.21,NW,315,6.0,20.0,65,0.00,,,0.00,Rainwise IP-100,2013-11-09 04:07:00,
2013-11-08 23:12:00,32.0,23.0,30.21,North,360,6.0,16.0,65,0.00,,,0.00,Rainwise IP-100,2013-11-09 04:12:00,
2013-11-08 23:17:00,32.0,23.0,30.21,NNW,337,9.0,16.0,65,0.00,,,0.00,Rainwise IP-100,2013-11-09 04:17:00,
2013-11-08 23:22:00,32.0,23.0,30.21,NNW,337,7.0,12.0,65,0.00,,,0.00,Rainwise IP-100,2013-11-09 04:22:00,
2013-11-08 23:27:00,32.0,23.0,30.21,NW,315,7.0,13.0,65,0.00,,,0.00,Rainwise IP-100,2013-11-09 04:27:00,
2013-11-08 23:32:00,32.0,23.0,30.21,North,360,10.0,15.0,65,0.00,,,0.00,Rainwise IP-100,2013-11-09 04:32:00,
2013-11-08 23:37:00,32.0,23.0,30.21,North,360,7.0,16.0,66,0.00,,,0.00,Rainwise IP-100,2013-11-09 04:37:00,
2013-11-08 23:42:00,31.0,21.0,30.21,NNW,337,10.0,16.0,66,0.00,,,0.00,Rainwise IP-100,2013-11-09 04:42:00,
2013-11-08 23:47:00,32.0,23.0,30.21,North,360,11.0,17.0,66,0.00,,,0.00,Rainwise IP-100,2013-11-09 04:47:00,
2013-11-08 23:52:00,32.0,23.0,30.21,NW,315,13.0,20.0,66,0.00,,,0.00,Rainwise IP-100,2013-11-09 04:52:00,
2013-11-08 23:57:00,31.0,21.0,30.21,NW,315,7.0,16.0,66,0.00,,,0.00,Rainwise IP-100,2013-11-09 04:57:00,